Regional Weather Roundup
Issued by NWS Cleveland, OH

Home | Current Version | Previous Version | Graphics & Text | Print | Product List | Glossary On
Versions: 1 2 3 4 5 6 7 8 9 10 11 12 13 14 15 16 17 18 19 20 21 22 23 24 25 26 27 28 29 30 31 32 33 34 35 36 37 38 39 40 41 42 43 44 45 46 47 48 49 50
000
ASUS41 KCLE 190900
RWRCLE
OHIO REGIONAL WEATHER ROUNDUP
NATIONAL WEATHER SERVICE WILMINGTON, OH
400 AM EST THU JAN 19 2017

NOTE: "FAIR" INDICATES FEW OR NO CLOUDS BELOW 12,000 FEET WITH NO
SIGNIFICANT WEATHER AND/OR OBSTRUCTIONS TO VISIBILITY.

OHZ001>008-015>018-024>027-034-035-043-044-191000-
   NORTHWEST OHIO

CITY           SKY/WX    TMP DP  RH WIND       PRES   REMARKS
DEFIANCE       CLOUDY    34  31  88 SW9       30.10F WCI  27
FINDLAY        CLOUDY    37  33  85 SW10      30.08F
TOLEDO EXPRESS CLOUDY    34  33  96 SW13      30.08S WCI  25
TOLEDO EXEC    CLOUDY    36  34  92 SW13      30.09S
LIMA           CLOUDY    36  35  96 SW7       30.09F
$$

OHZ009>014-019>023-028>033-038-089-191000-
   NORTHEAST OHIO

CITY           SKY/WX    TMP DP  RH WIND       PRES   REMARKS
CLE-HOPKINS    CLOUDY    38  33  82 SW13      30.10S
CLE-LAKEFRONT  CLOUDY    37  34  89 SW13      30.07F
CUY CO. ARPT   NOT AVBL
LORAIN-ELYRIA  CLOUDY    36  32  85 SW12      30.08F
ASHTABULA      CLOUDY    37  36  96 SW3       30.07S
AKRON-CANTON   CLOUDY    37  33  85 SW7       30.08S
WOOSTER        NOT AVBL
MANSFIELD      CLOUDY    36  35  96 SW12      30.08S
YOUNGSTOWN     CLOUDY    36  34  92 SW6       30.06F
$$

OHZ042-051>053-060>062-070>072-077>081-191000-
  SOUTHWEST OHIO

CITY           SKY/WX    TMP DP  RH WIND       PRES   REMARKS
CINC-COVINGTON CLOUDY    39  37  92 CALM      30.10F
CINC-LUNKEN    CLOUDY    41  38  89 CALM      30.14F
HAMILTON       CLOUDY    40  37  89 CALM      30.13F
DAYTON         NOT AVBL
WRIGHT-PAT AFB CLOUDY    38  38  99 S5        30.12R
DAYTON GENERAL CLOUDY    38  35  89 SW5       30.10F
WILMINGTON     CLOUDY    37  36  96 SW7       30.11F
$$

OHZ036-037-039>041-045>050-054>059-063>069-073>076-082>088-191000-
  CENTRAL AND SOUTHEAST OHIO

CITY           SKY/WX    TMP DP  RH WIND       PRES   REMARKS
COLUMBUS       CLOUDY    40  36  86 SW8       30.11S
OSU AIRPORT    CLOUDY    39  37  92 SW7       30.10F
BOLTON FIELD   NOT AVBL
RICKENBACK AFB NOT AVBL
NEWARK         CLOUDY    39  36  89 SW8       30.11S
MARION         CLOUDY    37  35  92 SW8       30.10S
LANCASTER      CLOUDY    40  37  89 SW7       30.12F
ZANESVILLE     CLOUDY    39  35  86 SW7       30.12S
NEW PHILLY     CLOUDY    38  36  92 CALM      30.11S
$$



USA.gov is the U.S. government's official web portal to all federal, state and local government web resources and services.